Location: Prague
(50.0830°N, 14.4670°E)
Time: 19:48:29
(UTC+02:00)

EO-88 - Visible Passes

Search period start: 28 March 2023 00:00
Search period end: 07 April 2023 00:00
Orbit: 396 x 400 km, 97.2° (Epoch: 28 March)

Date Brightness Start Highest point End Pass type
(mag) Time Alt. Az. Time Alt. Az. Time Alt. Az.
28 Mar ? 22:02:09 17° NNE 22:02:09 17° NNE 22:03:03 10° N visible
29 Mar ? 22:43:11 16° NNW 22:43:11 16° NNW 22:43:57 10° NNW visible
30 Mar ? 21:51:27 17° NNE 21:51:27 17° NNE 21:52:28 10° N visible
31 Mar ? 22:32:07 20° NNW 22:32:07 20° NNW 22:33:10 10° NNW visible
01 Apr ? 21:40:03 15° NE 21:40:03 15° NE 21:41:04 10° NNE visible
01 Apr ? 23:12:35 13° NW 23:12:35 13° NW 23:13:02 10° NW visible
02 Apr ? 22:20:20 22° N 22:20:20 22° N 22:21:39 10° N visible
03 Apr ? 21:27:57 13° NE 21:27:57 13° NE 21:28:48 10° NNE visible
03 Apr ? 23:00:26 17° NW 23:00:26 17° NW 23:01:21 10° NNW visible
04 Apr ? 22:07:52 23° NNE 22:07:52 23° NNE 22:09:20 10° N visible
05 Apr ? 21:15:07 10° NE 21:15:07 10° NE 21:15:16 10° NE visible
05 Apr ? 22:47:36 22° NNW 22:47:36 22° NNW 22:48:53 10° NNW visible
06 Apr ? 21:54:41 21° NE 21:54:41 21° NE 21:56:15 10° N visible
06 Apr ? 23:27:09 12° NW 23:27:09 12° NW 23:27:30 10° NW visible
